Regional Weather Roundup
Issued by NWS

Home | Current Version | Previous Version | Graphics & Text | Print | Product List | Glossary On
Versions: 1 2 3 4 5 6 7 8 9 10 11 12 13 14 15 16 17 18 19 20 21 22 23 24 25 26 27 28 29 30 31 32 33 34 35 36 37 38 39 40 41 42 43 44 45 46 47 48 49 50
595
ASUS44 KJAN 181203
RWRMS

MISSISSIPPI HOURLY WEATHER ROUNDUP
NATIONAL WEATHER SERVICE JACKSON MS
700 AM CDT FRI APR 18 2014

NOTE: "FAIR: INDICATES FEW OR NO CLOUDS BELOW 12,000 FEET WITH NO
SIGNIFICANT WEATHER AND/OR OBSTRUCTIONS TO VISIBILITY.

MSZ001>002-007>008-010>013-018>021-025>028-034>036-181300-
NORTHWEST MISSISSIPPI

CITY           SKY/WX    TMP DP  RH WIND       PRES   REMARKS
CLARKSDALE       N/A     55  54  94 NE6       30.23R
CLEVELAND      CLOUDY    57  54  90 E5        30.21R
GREENWOOD      CLOUDY    55  51  86 N5        30.21R
6HR MIN TEMP:  52; 6HR MAX TEMP:  59;

GREENVILLE     CLOUDY    57  53  86 NE5       30.21R
6HR MIN TEMP:  54; 6HR MAX TEMP:  60;

GRENADA        CLOUDY    54  52  94 N3        30.23R
OLIVE BRANCH   MOCLDY    52  52 100 CALM      30.23S
OXFORD         CLOUDY    52  48  87 CALM      30.25R
TUNICA         PTSUNNY   54  50  87 CALM      30.25R
$$

MSZ003>006-009-014>017-022>024-029>033-037>039-181300-
NORTHEAST MISSISSIPPI

CITY           SKY/WX    TMP DP  RH WIND       PRES   REMARKS
BELMONT        FAIR      55  49  79 CALM      30.24R
COLUMBUS AFB   CLOUDY    57  50  77 E5        30.21R
CORINTH        CLOUDY    55  48  76 CALM      30.25R
GOLDN TRIANGLE CLOUDY    57  46  67 E7        30.23R
STARKVILLE     CLOUDY    57  50  77 E5        30.20R
TUPELO         CLOUDY    57  51  80 NE5       30.23R
6HR MIN TEMP:  55; 6HR MAX TEMP:  60;

$$

MSZ040-058-181300-
CENTRAL MISSISSIPPI

CITY           SKY/WX    TMP DP  RH WIND       PRES   REMARKS
JACKSON INTL   CLOUDY    57  54  89 N5        30.17R
6HR MIN TEMP:  55; 6HR MAX TEMP:  60;

JACKSON HAWKNS CLOUDY    59  53  80 NE3       30.17R
6HR MIN TEMP:  57; 6HR MAX TEMP:  62;

MERIDIAN KEY   CLOUDY    56  54  93 NE7       30.17R
6HR MIN TEMP:  56; 6HR MAX TEMP:  61; 6HR PCP:  0.07;

MERIDIAN NAS   CLOUDY    57  52  83 E7        30.19R
6HR MIN TEMP:  56; 6HR MAX TEMP:  58; 6HR PCP: TRACE;

RAYMOND        PTSUNNY   54  48  82 CALM      30.17R
VICKSBURG      CLOUDY    59  55  87 N6        30.18R
6HR MIN TEMP:  58; 6HR MAX TEMP:  61;

$$

MSZ059>079-181300-
SOUTH MISSISSIPPI

CITY           SKY/WX    TMP DP  RH WIND       PRES   REMARKS
BROOKHAVEN     CLOUDY    57  55  94 CALM      30.16R
COLUMBIA       CLOUDY    59  59 100 MISG      30.12R
HATTIESBURG    LGT RAIN  60  58  92 E6        30.12R
6HR MIN TEMP:  59; 6HR MAX TEMP:  60; 6HR PCP:  0.54;

MCCOMB         CLOUDY    59  56  89 NE5       30.13R
6HR MIN TEMP:  58; 6HR MAX TEMP:  59;

NATCHEZ        CLOUDY    54  52  94 N5        30.16R
6HR MIN TEMP:  50; 6HR MAX TEMP:  57;

PINE BELT      CLOUDY    57  55  94 N6        30.13R
6HR MIN TEMP:  57; 6HR MAX TEMP:  59; 6HR PCP:  0.26;

$$

MSZ080>082-181300-
COASTAL MISSISSIPPI

CITY           SKY/WX    TMP DP  RH WIND       PRES   REMARKS
BAY ST LOUIS   LGT RAIN  55  54  94 MISG      30.08
BILOXI         LGT RAIN  60  60 100 N9        30.07R FOG
6HR MIN TEMP:  60; 6HR MAX TEMP:  61; 6HR PCP:  0.07;

PASCAGOULA     RAIN      60  59  96 NE12      30.06R FOG
6HR MIN TEMP:  60; 6HR MAX TEMP:  61; 6HR PCP:  0.25;

GULFPORT       LGT RAIN  62  59  90 N7        30.07R FOG
6HR MIN TEMP:  62; 6HR MAX TEMP:  63; 6HR PCP:  0.13;

$$



USA.gov is the U.S. government's official web portal to all federal, state and local government web resources and services.